| time (UTC) | temp F | wind direction | speed knots | gust knots | rain 1hr in | rain 24hr in | rain mn in | humidity % | barometer mb |
| 20260904210043 | 88 | 251 | 1.7 | 4.3 | 0.00 | 0.00 | 0.00 | 70 | 1011.9 |
| 20260904205543 | 88 | 247 | 1.7 | 3.5 | 0.00 | 0.00 | 0.00 | 70 | 1011.9 |
| 20260904205053 | 88 | 219 | 1.7 | 3.5 | 0.00 | 0.00 | 0.00 | 71 | 1011.9 |
| 20260904204541 | 88 | 240 | 1.7 | 4.3 | 0.00 | 0.00 | 0.00 | 70 | 1011.9 |
| 20260904204041 | 88 | 245 | 2.6 | 5.2 | 0.00 | 0.00 | 0.00 | 69 | 1011.9 |
| 20260904203539 | 88 | 242 | 2.6 | 5.2 | 0.00 | 0.00 | 0.00 | 68 | 1011.9 |
| 20260904203039 | 88 | 232 | 2.6 | 4.3 | 0.00 | 0.00 | 0.00 | 69 | 1011.9 |
| 20260904202538 | 88 | 243 | 2.6 | 4.3 | 0.00 | 0.00 | 0.00 | 68 | 1012.2 |
| 20260904202050 | 88 | 239 | 3.5 | 6.1 | 0.00 | 0.00 | 0.00 | 69 | 1012.2 |
| 20260904201538 | 88 | 188 | 1.7 | 6.1 | 0.00 | 0.00 | 0.00 | 68 | 1012.2 |
| 20260904201037 | 88 | 225 | 1.7 | 5.2 | 0.00 | 0.00 | 0.00 | 68 | 1012.5 |
| 20260904200537 | 88 | 204 | 2.6 | 7.0 | 0.00 | 0.00 | 0.00 | 68 | 1012.5 |
| 20260904200042 | 87 | 172 | 1.7 | 7.0 | 0.00 | 0.00 | 0.00 | 68 | 1012.5 |
| 20260904195536 | 87 | 231 | 3.5 | 7.0 | 0.00 | 0.00 | 0.00 | 68 | 1012.5 |
| 20260904195036 | 87 | 243 | 2.6 | 7.0 | 0.00 | 0.00 | 0.00 | 68 | 1012.5 |
| 20260904194758 | 87 | 180 | 1.7 | 4.3 | 0.00 | 0.00 | 0.00 | 68 | 1012.9 |
| 20260904194034 | 87 | 204 | 2.6 | 7.8 | 0.00 | 0.00 | 0.00 | 67 | 1012.9 |
| 20260904193533 | 87 | 162 | 3.5 | 7.8 | 0.00 | 0.00 | 0.00 | 67 | 1013.3 |
| 20260904193035 | 87 | 183 | 2.6 | 5.2 | 0.00 | 0.00 | 0.00 | 67 | 1013.3 |
| 20260904192532 | 87 | 171 | 4.3 | 5.2 | 0.00 | 0.00 | 0.00 | 66 | 1013.3 |
| 20260904192033 | 87 | 190 | 2.6 | 5.2 | 0.00 | 0.00 | 0.00 | 68 | 1013.7 |
| 20260904191531 | 87 | 173 | 3.5 | 5.2 | 0.00 | 0.00 | 0.00 | 67 | 1013.7 |
| 20260904191030 | 86 | 157 | 3.5 | 6.1 | 0.00 | 0.00 | 0.00 | 68 | 1013.3 |
| 20260904190529 | 85 | 254 | 1.7 | 7.0 | 0.00 | 0.00 | 0.00 | 69 | 1013.7 |
| 20260904190032 | 85 | 145 | 3.5 | 8.7 | 0.00 | 0.00 | 0.00 | 69 | 1013.7 |
| 20260904185530 | 85 | 87 | 1.7 | 8.7 | 0.00 | 0.00 | 0.00 | 69 | 1013.7 |
| 20260904185028 | 85 | 139 | 2.6 | 9.6 | 0.00 | 0.00 | 0.00 | 71 | 1013.7 |
| 20260904184530 | 84 | 158 | 5.2 | 9.6 | 0.00 | 0.00 | 0.00 | 69 | 1013.7 |
| 20260904184030 | 85 | 148 | 6.1 | 9.6 | 0.00 | 0.00 | 0.00 | 70 | 1014.0 |
| 20260904183527 | 84 | 124 | 2.6 | 8.7 | 0.00 | 0.00 | 0.00 | 69 | 1014.0 |
| 20260904183028 | 85 | 183 | 4.3 | 6.1 | 0.00 | 0.00 | 0.00 | 69 | 1014.3 |
| 20260904182526 | 84 | 182 | 2.6 | 8.7 | 0.00 | 0.00 | 0.00 | 73 | 1014.0 |
| 20260904182026 | 83 | 175 | 1.7 | 9.6 | 0.00 | 0.00 | 0.00 | 74 | 1014.0 |
| 20260904181526 | 83 | 124 | 2.6 | 9.6 | 0.00 | 0.00 | 0.00 | 73 | 1014.0 |
| 20260904181026 | 82 | 135 | 3.5 | 8.7 | 0.00 | 0.00 | 0.00 | 73 | 1014.0 |
| 20260904180525 | 82 | 107 | 7.0 | 9.6 | 0.00 | 0.00 | 0.00 | 74 | 1014.3 |
| 20260904180243 | 82 | 189 | 5.2 | 9.6 | 0.00 | 0.00 | 0.00 | 73 | 1014.0 |
| 20260904175748 | 83 | 172 | 6.1 | 9.6 | 0.00 | 0.00 | 0.00 | 74 | 1014.0 |
| 20260904175024 | 83 | 136 | 5.2 | 11.3 | 0.00 | 0.00 | 0.00 | 74 | 1014.3 |
| 20260904174742 | 83 | 215 | 2.6 | 11.3 | 0.00 | 0.00 | 0.00 | 74 | 1014.3 |
| 20260904174246 | 82 | 69 | 2.6 | 9.6 | 0.00 | 0.00 | 0.00 | 76 | 1014.3 |
| 20260904173522 | 82 | 86 | 4.3 | 10.4 | 0.00 | 0.00 | 0.00 | 75 | 1014.7 |
| 20260904173034 | 82 | 163 | 6.1 | 10.4 | 0.00 | 0.00 | 0.00 | 76 | 1014.7 |
| 20260904172749 | 81 | 158 | 3.5 | 10.4 | 0.00 | 0.00 | 0.00 | 79 | 1014.7 |
| 20260904172020 | 81 | 71 | 4.3 | 9.6 | 0.00 | 0.00 | 0.00 | 78 | 1015.0 |
| 20260904171519 | 80 | 162 | 7.0 | 9.6 | 0.00 | 0.00 | 0.00 | 78 | 1015.4 |
| 20260904171018 | 80 | 67 | 6.1 | 9.6 | 0.00 | 0.00 | 0.00 | 79 | 1015.4 |
| 20260904170520 | 80 | 68 | 6.1 | 9.6 | 0.00 | 0.00 | 0.00 | 80 | 1015.4 |
| 20260904170242 | 80 | 109 | 6.1 | 9.6 | 0.00 | 0.00 | 0.00 | 80 | 1016.0 |
| 20260904165517 | 79 | 73 | 3.5 | 9.6 | 0.00 | 0.00 | 0.00 | 81 | 1016.0 |
| 20260904165017 | 79 | 84 | 3.5 | 11.3 | 0.00 | 0.00 | 0.00 | 81 | 1016.0 |
| 20260904164516 | 79 | 154 | 2.6 | 11.3 | 0.00 | 0.00 | 0.00 | 81 | 1016.0 |
| 20260904164018 | 80 | 62 | 7.8 | 8.7 | 0.00 | 0.00 | 0.00 | 80 | 1016.4 |
| 20260904163515 | 79 | 129 | 3.5 | 9.6 | 0.00 | 0.00 | 0.00 | 81 | 1016.0 |
| 20260904163233 | 79 | 88 | 4.3 | 14.8 | 0.00 | 0.00 | 0.00 | 82 | 1015.7 |
| 20260904162739 | 79 | 123 | 5.2 | 14.8 | 0.00 | 0.00 | 0.00 | 82 | 1015.7 |
| 20260904162013 | 80 | 122 | 5.2 | 10.4 | 0.00 | 0.00 | 0.00 | 82 | 1015.7 |
| 20260904161515 | 80 | 88 | 4.3 | 10.4 | 0.00 | 0.00 | 0.00 | 82 | 1016.0 |
| 20260904161013 | 80 | 54 | 2.6 | 11.3 | 0.00 | 0.00 | 0.00 | 82 | 1015.7 |
| 20260904160514 | 80 | 118 | 6.1 | 11.3 | 0.00 | 0.00 | 0.00 | 81 | 1015.7 |
| 20260904160242 | 80 | 99 | 2.6 | 5.2 | 0.00 | 0.00 | 0.00 | 83 | 1015.7 |
| 20260904155510 | 80 | 87 | 3.5 | 8.7 | 0.00 | 0.00 | 0.00 | 82 | 1015.4 |
| 20260904155237 | 80 | 74 | 4.3 | 8.7 | 0.00 | 0.00 | 0.00 | 83 | 1015.7 |
| 20260904154509 | 80 | 71 | 7.8 | 8.7 | 0.00 | 0.00 | 0.00 | 82 | 1015.7 |
| 20260904154017 | 80 | 30 | 3.5 | 8.7 | 0.00 | 0.00 | 0.00 | 83 | 1015.4 |
| 20260904154009 | 80 | 32 | 3.5 | 7.8 | 0.00 | 0.00 | 0.00 | 82 | 1015.7 |
| 20260904153509 | 80 | 346 | 3.5 | 7.8 | 0.00 | 0.00 | 0.00 | 84 | 1015.4 |
| 20260904152520 | 80 | 69 | 5.2 | 8.7 | 0.00 | 0.00 | 0.00 | 83 | 1015.0 |
| 20260904152008 | 80 | 67 | 7.0 | 8.7 | 0.00 | 0.00 | 0.00 | 82 | 1015.4 |
| 20260904151506 | 81 | 13 | 5.2 | 7.8 | 0.00 | 0.00 | 0.00 | 81 | 1015.4 |
| 20260904151008 | 81 | 75 | 5.2 | 7.8 | 0.00 | 0.00 | 0.00 | 81 | 1015.0 |
| 20260904150520 | 81 | 117 | 3.5 | 6.1 | 0.00 | 0.00 | 0.00 | 81 | 1014.3 |
| 20260904150008 | 81 | 53 | 2.6 | 7.8 | 0.00 | 0.00 | 0.00 | 81 | 1014.7 |
| 20260904145507 | 80 | 115 | 3.5 | 7.8 | 0.00 | 0.00 | 0.00 | 80 | 1014.3 |
| 20260904145003 | 80 | 93 | 3.5 | 7.8 | 0.00 | 0.00 | 0.00 | 82 | 1014.3 |
| 20260904144503 | 80 | 45 | 1.7 | 7.8 | 0.00 | 0.00 | 0.00 | 82 | 1014.3 |
| 20260904144003 | 80 | 152 | 3.5 | 6.1 | 0.00 | 0.00 | 0.00 | 83 | 1014.3 |
| 20260904143724 | 80 | 78 | 1.7 | 7.0 | 0.00 | 0.00 | 0.00 | 83 | 1014.3 |
| 20260904143005 | 80 | 81 | 7.0 | 7.8 | 0.00 | 0.00 | 0.00 | 83 | 1014.3 |
| 20260904142502 | 80 | 99 | 2.6 | 7.8 | 0.00 | 0.00 | 0.00 | 83 | 1014.3 |
| 20260904142002 | 80 | 33 | 4.3 | 7.8 | 0.00 | 0.00 | 0.00 | 81 | 1014.3 |
| 20260904141501 | 81 | 70 | 5.2 | 8.7 | 0.00 | 0.00 | 0.00 | 83 | 1014.3 |
| 20260904140959 | 81 | 86 | 1.7 | 8.7 | 0.00 | 0.00 | 0.00 | 81 | 1014.3 |
| 20260904140515 | 82 | 80 | 3.5 | 6.1 | 0.00 | 0.00 | 0.00 | 81 | 1014.3 |
| 20260904140002 | 81 | 74 | 3.5 | 3.5 | 0.00 | 0.00 | 0.00 | 83 | 1014.3 |
| 20260904135500 | 80 | 63 | 2.6 | 3.5 | 0.00 | 0.00 | 0.00 | 81 | 1014.3 |
| 20260904134959 | 80 | 69 | 3.5 | 3.5 | 0.00 | 0.00 | 0.00 | 83 | 1014.0 |
| 20260904134458 | 80 | 347 | 0.0 | 2.6 | 0.00 | 0.00 | 0.00 | 83 | 1014.0 |
| 20260904134008 | 79 | 61 | 0.9 | 3.5 | 0.00 | 0.00 | 0.00 | 85 | 1014.0 |
| 20260904133456 | 79 | 65 | 2.6 | 3.5 | 0.00 | 0.00 | 0.00 | 85 | 1014.0 |
| 20260904132957 | 78 | 103 | 0.0 | 2.6 | 0.00 | 0.00 | 0.00 | 87 | 1014.0 |
| 20260904132455 | 77 | 75 | 1.7 | 2.6 | 0.00 | 0.00 | 0.00 | 90 | 1014.0 |
| 20260904131955 | 76 | 192 | 1.7 | 1.7 | 0.00 | 0.00 | 0.00 | 92 | 1014.0 |
| 20260904131720 | 76 | 180 | 0.0 | 2.6 | 0.00 | 0.00 | 0.00 | 92 | 1014.0 |
| 20260904130955 | 75 | 133 | 0.0 | 3.5 | 0.00 | 0.00 | 0.00 | 93 | 1014.0 |
| 20260904130455 | 74 | 37 | 0.9 | 3.5 | 0.00 | 0.00 | 0.00 | 94 | 1014.0 |
| 20260904125953 | 74 | 63 | 2.6 | 2.6 | 0.00 | 0.00 | 0.00 | 95 | 1013.7 |
| 20260904125452 | 74 | 75 | 1.7 | 1.7 | 0.00 | 0.00 | 0.00 | 95 | 1013.7 |
| 20260904124953 | 74 | 37 | 0.0 | 0.0 | 0.00 | 0.00 | 0.00 | 95 | 1013.3 |
| 20260904124456 | 74 | 37 | 0.0 | 0.0 | 0.00 | 0.00 | 0.00 | 95 | 1013.3 |
| 20260904123951 | 74 | 37 | 0.0 | 0.0 | 0.00 | 0.00 | 0.00 | 95 | 1013.3 |
| 20260904123715 | 74 | 113 | 0.0 | 0.9 | 0.00 | 0.00 | 0.00 | 95 | 1012.9 |
| 20260904123208 | 73 | 89 | 0.0 | 1.7 | 0.00 | 0.00 | 0.00 | 95 | 1012.9 |
| 20260904122450 | 73 | 76 | 0.9 | 1.7 | 0.00 | 0.00 | 0.00 | 95 | 1012.5 |
| 20260904121950 | 73 | 89 | 0.9 | 0.9 | 0.00 | 0.00 | 0.00 | 95 | 1012.5 |
| 20260904121449 | 73 | 103 | 0.0 | 0.9 | 0.00 | 0.00 | 0.00 | 94 | 1012.5 |
| 20260904120947 | 73 | 117 | 0.0 | 0.0 | 0.00 | 0.00 | 0.00 | 94 | 1012.5 |
| 20260904120709 | 73 | 117 | 0.0 | 0.0 | 0.00 | 0.00 | 0.00 | 93 | 1012.5 |
| 20260904115949 | 73 | 117 | 0.0 | 0.0 | 0.00 | 0.00 | 0.00 | 93 | 1012.2 |
| 20260904115707 | 74 | 29 | 0.0 | 0.0 | 0.00 | 0.00 | 0.00 | 93 | 1012.5 |
| 20260904115214 | 74 | 29 | 0.0 | 0.0 | 0.00 | 0.00 | 0.00 | 92 | 1012.2 |
| 20260904114445 | 74 | 29 | 0.0 | 0.0 | 0.00 | 0.00 | 0.00 | 92 | 1012.2 |
| 20260904113946 | 74 | 333 | 0.0 | 0.0 | 0.00 | 0.00 | 0.00 | 91 | 1012.5 |
| 20260904113706 | 74 | 37 | 0.0 | 0.0 | 0.00 | 0.00 | 0.00 | 91 | 1012.2 |
| 20260904112943 | 75 | 167 | 0.0 | 0.9 | 0.00 | 0.00 | 0.00 | 90 | 1012.2 |
| 20260904112443 | 75 | 224 | 0.0 | 0.9 | 0.00 | 0.00 | 0.00 | 89 | 1012.2 |
| 20260904112211 | 75 | 230 | 0.0 | 0.9 | 0.00 | 0.00 | 0.00 | 89 | 1012.2 |
| 20260904111707 | 76 | 202 | 0.0 | 1.7 | 0.00 | 0.00 | 0.00 | 89 | 1012.2 |
| 20260904110943 | 76 | 239 | 0.9 | 2.6 | 0.00 | 0.00 | 0.00 | 89 | 1011.9 |
| 20260904110451 | 76 | 291 | 1.7 | 3.5 | 0.00 | 0.00 | 0.00 | 88 | 1012.2 |
| 20260904105942 | 76 | 251 | 0.9 | 3.5 | 0.00 | 0.00 | 0.00 | 88 | 1011.9 |
| 20260904105441 | 76 | 246 | 1.7 | 3.5 | 0.00 | 0.00 | 0.00 | 88 | 1011.9 |
| 20260904104941 | 76 | 269 | 0.0 | 4.3 | 0.00 | 0.00 | 0.00 | 88 | 1011.9 |
| 20260904104440 | 76 | 217 | 1.7 | 5.2 | 0.00 | 0.00 | 0.00 | 88 | 1011.9 |
| 20260904103938 | 76 | 250 | 2.6 | 5.2 | 0.00 | 0.00 | 0.00 | 88 | 1011.9 |
| 20260904103439 | 76 | 233 | 1.7 | 4.3 | 0.00 | 0.00 | 0.00 | 88 | 1011.5 |
| 20260904103203 | 76 | 247 | 3.5 | 4.3 | 0.00 | 0.00 | 0.00 | 88 | 1011.9 |
| 20260904102437 | 76 | 240 | 1.7 | 4.3 | 0.00 | 0.00 | 0.00 | 88 | 1011.5 |
| 20260904101938 | 76 | 235 | 2.6 | 5.2 | 0.00 | 0.00 | 0.00 | 88 | 1011.5 |
| 20260904101439 | 76 | 253 | 2.6 | 5.2 | 0.00 | 0.00 | 0.00 | 88 | 1011.9 |
| 20260904100935 | 76 | 253 | 3.5 | 5.2 | 0.00 | 0.00 | 0.00 | 88 | 1011.9 |
| 20260904100435 | 76 | 235 | 2.6 | 4.3 | 0.00 | 0.00 | 0.00 | 89 | 1011.9 |
| 20260904095935 | 77 | 226 | 2.6 | 4.3 | 0.00 | 0.00 | 0.00 | 89 | 1011.9 |
| 20260904095434 | 77 | 233 | 1.7 | 3.5 | 0.00 | 0.00 | 0.00 | 89 | 1011.9 |
| 20260904094936 | 77 | 248 | 2.6 | 5.2 | 0.00 | 0.00 | 0.00 | 89 | 1011.9 |
| 20260904094434 | 77 | 226 | 3.5 | 5.2 | 0.00 | 0.00 | 0.00 | 89 | 1011.5 |
| 20260904093933 | 77 | 235 | 3.5 | 4.3 | 0.00 | 0.00 | 0.00 | 90 | 1011.9 |
| 20260904093650 | 76 | 243 | 3.5 | 4.3 | 0.00 | 0.00 | 0.00 | 90 | 1011.9 |
| 20260904092931 | 76 | 234 | 2.6 | 3.5 | 0.00 | 0.00 | 0.00 | 92 | 1011.9 |
| 20260904092434 | 76 | 255 | 2.6 | 3.5 | 0.00 | 0.00 | 0.00 | 92 | 1012.2 |
| 20260904091932 | 76 | 237 | 1.7 | 2.6 | 0.00 | 0.00 | 0.00 | 92 | 1012.2 |
| 20260904091431 | 76 | 238 | 1.7 | 1.7 | 0.00 | 0.00 | 0.00 | 92 | 1012.2 |
| 20260904090929 | 76 | 228 | 1.7 | 1.7 | 0.00 | 0.00 | 0.00 | 92 | 1012.5 |
| 20260904090428 | 76 | 252 | 0.9 | 1.7 | 0.00 | 0.00 | 0.00 | 92 | 1012.5 |
| 20260904085930 | 76 | 191 | 0.0 | 1.7 | 0.00 | 0.00 | 0.00 | 93 | 1012.5 |
| 20260904085644 | 76 | 223 | 0.0 | 2.6 | 0.00 | 0.00 | 0.00 | 93 | 1012.5 |
| 20260904084927 | 76 | 231 | 0.9 | 3.5 | 0.00 | 0.00 | 0.00 | 93 | 1012.5 |
| 20260904084430 | 76 | 238 | 1.7 | 3.5 | 0.00 | 0.00 | 0.00 | 94 | 1012.5 |
| 20260904083927 | 76 | 250 | 0.0 | 3.5 | 0.00 | 0.00 | 0.00 | 94 | 1012.5 |
| 20260904083428 | 76 | 247 | 1.7 | 2.6 | 0.00 | 0.00 | 0.00 | 95 | 1012.2 |
| 20260904082925 | 76 | 251 | 1.7 | 2.6 | 0.00 | 0.00 | 0.00 | 95 | 1012.5 |
| 20260904082426 | 75 | 259 | 1.7 | 2.6 | 0.00 | 0.00 | 0.00 | 95 | 1012.5 |
| 20260904081927 | 75 | 250 | 1.7 | 1.7 | 0.00 | 0.00 | 0.00 | 95 | 1012.5 |
| 20260904081424 | 75 | 256 | 0.9 | 1.7 | 0.00 | 0.00 | 0.00 | 95 | 1012.5 |
| 20260904080926 | 76 | 243 | 0.0 | 1.7 | 0.00 | 0.00 | 0.00 | 95 | 1012.5 |
| 20260904080422 | 76 | 247 | 0.0 | 0.9 | 0.00 | 0.00 | 0.00 | 95 | 1012.5 |
| 20260904080144 | 76 | 180 | 0.0 | 0.9 | 0.00 | 0.00 | 0.00 | 95 | 1012.5 |
| 20260904075647 | 76 | 242 | 0.0 | 0.9 | 0.00 | 0.00 | 0.00 | 95 | 1012.2 |
| 20260904074921 | 76 | 202 | 0.0 | 1.7 | 0.00 | 0.00 | 0.00 | 95 | 1012.5 |
| 20260904074642 | 76 | 180 | 0.0 | 1.7 | 0.00 | 0.00 | 0.00 | 95 | 1012.2 |
| 20260904074140 | 76 | 207 | 0.9 | 1.7 | 0.00 | 0.00 | 0.00 | 96 | 1012.2 |
| 20260904073421 | 75 | 206 | 1.7 | 1.7 | 0.00 | 0.00 | 0.00 | 96 | 1011.9 |
| 20260904072919 | 75 | 191 | 0.9 | 1.7 | 0.00 | 0.00 | 0.00 | 96 | 1011.9 |
| 20260904072419 | 75 | 235 | 0.9 | 1.7 | 0.00 | 0.00 | 0.00 | 97 | 1011.9 |
| 20260904071918 | 75 | 248 | 0.9 | 1.7 | 0.00 | 0.00 | 0.00 | 96 | 1011.9 |
| 20260904071419 | 75 | 232 | 0.0 | 1.7 | 0.00 | 0.00 | 0.00 | 96 | 1011.9 |
| 20260904070917 | 75 | 205 | 0.0 | 0.9 | 0.00 | 0.00 | 0.00 | 96 | 1011.9 |
| 20260904070418 | 74 | 235 | 0.0 | 0.9 | 0.00 | 0.00 | 0.00 | 95 | 1012.2 |
| 20260904065916 | 74 | 193 | 0.0 | 0.9 | 0.00 | 0.00 | 0.00 | 95 | 1012.2 |
| 20260904065416 | 74 | 224 | 0.0 | 0.9 | 0.00 | 0.00 | 0.00 | 95 | 1012.2 |
| 20260904064917 | 74 | 206 | 0.0 | 0.9 | 0.00 | 0.00 | 0.00 | 95 | 1012.2 |
| 20260904064414 | 75 | 218 | 0.9 | 0.9 | 0.00 | 0.00 | 0.00 | 95 | 1012.5 |
| 20260904063914 | 75 | 208 | 0.0 | 0.9 | 0.00 | 0.00 | 0.00 | 95 | 1012.5 |
| 20260904063413 | 75 | 209 | 0.0 | 1.7 | 0.00 | 0.00 | 0.00 | 94 | 1012.5 |
| 20260904063122 | 75 | 197 | 0.0 | 0.9 | 0.00 | 0.00 | 0.00 | 94 | 1012.9 |
| 20260904063002 | 75 | 203 | 0.9 | 1.7 | 0.00 | 0.00 | 0.00 | 94 | 1012.5 |
| 20260904061913 | 75 | 219 | 0.0 | 1.7 | 0.00 | 0.00 | 0.00 | 94 | 1012.9 |
| 20260904061412 | 75 | 170 | 0.9 | 1.7 | 0.00 | 0.00 | 0.00 | 94 | 1012.9 |
| 20260904060911 | 75 | 167 | 1.7 | 1.7 | 0.00 | 0.00 | 0.00 | 94 | 1012.9 |
| 20260904060411 | 75 | 173 | 0.9 | 1.7 | 0.00 | 0.00 | 0.00 | 94 | 1013.3 |
| 20260904060136 | 75 | 160 | 0.9 | 1.7 | 0.00 | 0.00 | 0.00 | 95 | 1013.3 |
| 20260904055425 | 75 | 142 | 0.0 | 0.9 | 0.00 | 0.00 | 0.00 | 95 | 1013.3 |
| 20260904054910 | 75 | 129 | 0.0 | 0.9 | 0.00 | 0.00 | 0.00 | 95 | 1013.3 |
| 20260904054409 | 75 | 154 | 0.0 | 0.9 | 0.00 | 0.00 | 0.00 | 95 | 1013.3 |
| 20260904054135 | 75 | 140 | 0.9 | 1.7 | 0.00 | 0.00 | 0.00 | 95 | 1013.7 |
| 20260904053421 | 75 | 205 | 0.0 | 1.7 | 0.00 | 0.00 | 0.00 | 95 | 1013.3 |
| 20260904052906 | 75 | 154 | 0.0 | 1.7 | 0.00 | 0.00 | 0.00 | 95 | 1013.3 |
| 20260904052407 | 75 | 214 | 0.0 | 1.7 | 0.00 | 0.00 | 0.00 | 94 | 1013.7 |
| 20260904051907 | 75 | 150 | 0.0 | 0.9 | 0.00 | 0.00 | 0.00 | 94 | 1013.3 |
| 20260904051407 | 75 | 129 | 0.0 | 0.0 | 0.00 | 0.00 | 0.00 | 94 | 1013.3 |
| 20260904050905 | 75 | 129 | 0.0 | 0.0 | 0.00 | 0.00 | 0.00 | 94 | 1012.9 |
| 20260904050405 | 75 | 129 | 0.0 | 0.0 | 0.00 | 0.00 | 0.00 | 94 | 1012.9 |
| 20260904045903 | 75 | 103 | 0.0 | 0.9 | 0.00 | 0.00 | 0.00 | 94 | 1012.9 |
| 20260904045404 | 75 | 89 | 0.0 | 0.9 | 0.00 | 0.00 | 0.00 | 94 | 1012.9 |
| 20260904044903 | 75 | 309 | 0.0 | 0.9 | 0.00 | 0.00 | 0.00 | 93 | 1013.3 |
| 20260904044627 | 76 | 322 | 0.0 | 0.9 | 0.00 | 0.00 | 0.00 | 93 | 1013.3 |
| 20260904043901 | 76 | 297 | 0.0 | 0.9 | 0.00 | 0.00 | 0.00 | 93 | 1012.9 |
| 20260904043402 | 76 | 230 | 0.0 | 0.9 | 0.00 | 0.00 | 0.00 | 92 | 1013.3 |
| 20260904043128 | 76 | 230 | 0.0 | 0.9 | 0.00 | 0.00 | 0.00 | 92 | 1013.3 |
| 20260904042400 | 76 | 180 | 0.0 | 0.9 | 0.00 | 0.00 | 0.00 | 92 | 1012.9 |
| 20260904041900 | 76 | 135 | 0.0 | 0.0 | 0.00 | 0.00 | 0.00 | 92 | 1013.3 |
| 20260904041402 | 76 | 129 | 0.0 | 0.0 | 0.00 | 0.00 | 0.00 | 92 | 1013.3 |
| 20260904040900 | 76 | 129 | 0.0 | 0.0 | 0.00 | 0.00 | 0.00 | 92 | 1013.3 |
| 20260904040359 | 76 | 22 | 0.0 | 1.7 | 0.00 | 0.00 | 0.00 | 92 | 1013.7 |
| 20260904035858 | 76 | 269 | 0.0 | 1.7 | 0.00 | 0.00 | 0.00 | 91 | 1013.3 |
| 20260904035357 | 76 | 284 | 0.0 | 1.7 | 0.00 | 0.00 | 0.00 | 91 | 1012.9 |
| 20260904034857 | 76 | 269 | 0.9 | 1.7 | 0.00 | 0.00 | 0.00 | 91 | 1013.3 |
| 20260904034357 | 77 | 333 | 1.7 | 1.7 | 0.00 | 0.00 | 0.00 | 91 | 1013.3 |
| 20260904033858 | 77 | 333 | 0.0 | 0.9 | 0.00 | 0.00 | 0.00 | 91 | 1013.3 |
| 20260904033356 | 77 | 297 | 0.0 | 0.9 | 0.00 | 0.00 | 0.00 | 91 | 1013.3 |
| 20260904032900 | 77 | 357 | 0.0 | 1.7 | 0.00 | 0.00 | 0.00 | 90 | 1013.3 |
| 20260904032854 | 77 | 306 | 0.0 | 1.7 | 0.00 | 0.00 | 0.00 | 91 | 1013.3 |
| 20260904031854 | 77 | 104 | 0.0 | 0.9 | 0.00 | 0.00 | 0.00 | 91 | 1013.3 |
| 20260904031354 | 77 | 89 | 0.0 | 0.9 | 0.00 | 0.00 | 0.00 | 92 | 1013.3 |
| 20260904030853 | 77 | 89 | 0.0 | 0.9 | 0.00 | 0.00 | 0.00 | 92 | 1013.3 |
| 20260904030353 | 77 | 120 | 0.0 | 0.9 | 0.00 | 0.00 | 0.00 | 92 | 1013.3 |
| 20260904025853 | 77 | 25 | 0.0 | 0.9 | 0.00 | 0.00 | 0.00 | 91 | 1013.3 |
| 20260904025353 | 77 | 75 | 0.0 | 1.7 | 0.00 | 0.00 | 0.00 | 91 | 1013.3 |
| 20260904024850 | 77 | 183 | 0.0 | 1.7 | 0.00 | 0.00 | 0.00 | 92 | 1013.3 |
| 20260904024616 | 77 | 322 | 0.0 | 1.7 | 0.00 | 0.00 | 0.00 | 92 | 1013.7 |
| 20260904024111 | 77 | 343 | 0.9 | 1.7 | 0.00 | 0.00 | 0.00 | 92 | 1013.3 |
| 20260904023349 | 77 | 65 | 0.0 | 1.7 | 0.00 | 0.00 | 0.00 | 91 | 1013.3 |
| 20260904022850 | 77 | 32 | 0.9 | 0.9 | 0.00 | 0.00 | 0.00 | 92 | 1013.3 |
| 20260904022617 | 77 | 309 | 0.0 | 0.0 | 0.00 | 0.00 | 0.00 | 92 | 1013.3 |
| 20260904021848 | 77 | 352 | 0.0 | 1.7 | 0.00 | 0.00 | 0.00 | 91 | 1013.3 |
| 20260904021606 | 77 | 242 | 0.0 | 1.7 | 0.00 | 0.00 | 0.00 | 91 | 1012.9 |
| 20260904020847 | 77 | 239 | 0.9 | 0.9 | 0.00 | 0.00 | 0.00 | 91 | 1012.9 |
| 20260904020348 | 78 | 242 | 0.0 | 0.0 | 0.00 | 0.00 | 0.00 | 92 | 1012.9 |
| 20260904015848 | 78 | 104 | 0.0 | 0.9 | 0.00 | 0.00 | 0.00 | 92 | 1012.9 |
| 20260904015346 | 78 | 25 | 0.0 | 0.9 | 0.00 | 0.00 | 0.00 | 91 | 1012.9 |
| 20260904014845 | 78 | 297 | 0.0 | 0.9 | 0.00 | 0.00 | 0.00 | 91 | 1012.9 |
| 20260904014613 | 78 | 333 | 0.0 | 0.9 | 0.00 | 0.00 | 0.00 | 90 | 1012.9 |
| 20260904013843 | 78 | 315 | 0.0 | 0.0 | 0.00 | 0.00 | 0.00 | 90 | 1012.9 |
| 20260904013344 | 78 | 309 | 0.0 | 0.9 | 0.00 | 0.00 | 0.00 | 90 | 1012.5 |
| 20260904012844 | 79 | 309 | 0.0 | 0.9 | 0.00 | 0.00 | 0.00 | 89 | 1012.5 |
| 20260904012342 | 79 | 317 | 0.0 | 0.9 | 0.00 | 0.00 | 0.00 | 89 | 1012.5 |
| 20260904011841 | 79 | 315 | 0.0 | 0.0 | 0.00 | 0.00 | 0.00 | 89 | 1012.5 |
| 20260904011343 | 79 | 315 | 0.0 | 0.9 | 0.00 | 0.00 | 0.00 | 88 | 1012.5 |
| 20260904010842 | 80 | 315 | 0.0 | 0.9 | 0.00 | 0.00 | 0.00 | 88 | 1012.2 |
| 20260904010340 | 80 | 15 | 0.0 | 1.7 | 0.00 | 0.00 | 0.00 | 87 | 1012.5 |
| 20260904005840 | 80 | 336 | 0.0 | 1.7 | 0.00 | 0.00 | 0.00 | 86 | 1012.2 |
| 20260904005815 | 81 | 320 | 0.9 | 1.7 | 0.00 | 0.00 | 0.00 | 85 | 1012.2 |
| 20260904004839 | 81 | 325 | 1.7 | 1.7 | 0.00 | 0.00 | 0.00 | 84 | 1011.9 |
| 20260904004339 | 81 | 327 | 1.7 | 1.7 | 0.00 | 0.00 | 0.00 | 83 | 1011.9 |
| 20260904003837 | 82 | 345 | 0.9 | 1.7 | 0.00 | 0.00 | 0.00 | 83 | 1011.9 |
| 20260904003338 | 82 | 331 | 0.0 | 1.7 | 0.00 | 0.00 | 0.00 | 82 | 1011.9 |
| 20260904002837 | 82 | 283 | 0.0 | 1.7 | 0.00 | 0.00 | 0.00 | 80 | 1011.5 |
| 20260904002336 | 83 | 179 | 0.0 | 0.9 | 0.00 | 0.00 | 0.00 | 80 | 1011.5 |
| 20260904001837 | 83 | 195 | 0.0 | 1.7 | 0.00 | 0.00 | 0.00 | 79 | 1011.5 |
| 20260904001334 | 84 | 213 | 0.0 | 1.7 | 0.00 | 0.00 | 0.00 | 78 | 1011.9 |
| 20260904000835 | 84 | 214 | 0.0 | 2.6 | 0.00 | 0.00 | 0.00 | 78 | 1011.5 |
| 20260904000603 | 84 | 214 | 0.0 | 2.6 | 0.00 | 0.00 | 0.00 | 77 | 1011.5 |
| 20260904000053 | 85 | 243 | 0.0 | 1.7 | 0.00 | 0.00 | 0.00 | 76 | 1011.5 |
| 20260903235334 | 85 | 201 | 1.7 | 1.7 | 0.00 | 0.00 | 0.00 | 75 | 1011.2 |
| 20260903234832 | 85 | 211 | 0.9 | 0.9 | 0.00 | 0.00 | 0.00 | 75 | 1011.5 |
| 20260903234559 | 85 | 214 | 0.0 | 1.7 | 0.00 | 0.00 | 0.00 | 73 | 1011.5 |
| 20260903234050 | 86 | 184 | 1.7 | 1.7 | 0.00 | 0.00 | 0.00 | 72 | 1011.5 |
| 20260903233817 | 86 | 171 | 0.0 | 1.7 | 0.00 | 0.00 | 0.00 | 73 | 1011.9 |
| 20260903232831 | 86 | 290 | 0.0 | 1.7 | 0.00 | 0.00 | 0.00 | 72 | 1011.5 |
| 20260903232330 | 86 | 216 | 0.9 | 1.7 | 0.00 | 0.00 | 0.00 | 72 | 1011.9 |
| 20260903231830 | 86 | 217 | 1.7 | 1.7 | 0.00 | 0.00 | 0.00 | 72 | 1011.9 |
| 20260903231330 | 86 | 30 | 0.0 | 1.7 | 0.00 | 0.00 | 0.00 | 71 | 1011.9 |
| 20260903230831 | 87 | 234 | 1.7 | 1.7 | 0.00 | 0.00 | 0.00 | 71 | 1011.9 |
| 20260903230602 | 87 | 225 | 1.7 | 1.7 | 0.00 | 0.00 | 0.00 | 72 | 1012.2 |
| 20260903225827 | 87 | 304 | 0.0 | 1.7 | 0.00 | 0.00 | 0.00 | 70 | 1011.9 |
| 20260903225328 | 87 | 254 | 0.9 | 1.7 | 0.00 | 0.00 | 0.00 | 70 | 1012.2 |
| 20260903224827 | 87 | 231 | 0.9 | 1.7 | 0.00 | 0.00 | 0.00 | 70 | 1012.2 |
| 20260903224328 | 87 | 272 | 0.9 | 1.7 | 0.00 | 0.00 | 0.00 | 70 | 1012.2 |
| 20260903223826 | 88 | 254 | 1.7 | 2.6 | 0.00 | 0.00 | 0.00 | 69 | 1011.9 |
| 20260903223326 | 88 | 261 | 1.7 | 2.6 | 0.00 | 0.00 | 0.00 | 69 | 1012.2 |
| 20260903222824 | 88 | 213 | 0.0 | 1.7 | 0.00 | 0.00 | 0.00 | 70 | 1012.2 |
| 20260903222542 | 88 | 250 | 0.9 | 1.7 | 0.00 | 0.00 | 0.00 | 68 | 1012.2 |
| 20260903221823 | 88 | 232 | 1.7 | 1.7 | 0.00 | 0.00 | 0.00 | 67 | 1012.2 |
| 20260903221323 | 88 | 272 | 0.9 | 2.6 | 0.00 | 0.00 | 0.00 | 67 | 1012.2 |
| 20260903220823 | 88 | 232 | 0.9 | 4.3 | 0.00 | 0.00 | 0.00 | 66 | 1012.2 |
| 20260903220322 | 88 | 158 | 2.6 | 4.3 | 0.00 | 0.00 | 0.00 | 66 | 1012.5 |
| 20260903215821 | 88 | 254 | 0.9 | 4.3 | 0.00 | 0.00 | 0.00 | 67 | 1012.2 |
| 20260903215322 | 88 | 216 | 1.7 | 3.5 | 0.00 | 0.00 | 0.00 | 66 | 1012.5 |
| 20260903215043 | 88 | 239 | 1.7 | 5.2 | 0.00 | 0.00 | 0.00 | 68 | 1012.2 |
| 20260903214320 | 88 | 185 | 1.7 | 5.2 | 0.00 | 0.00 | 0.00 | 67 | 1012.2 |
| 20260903213820 | 88 | 264 | 1.7 | 3.5 | 0.00 | 0.00 | 0.00 | 66 | 1012.2 |
| 20260903213319 | 88 | 218 | 0.9 | 3.5 | 0.00 | 0.00 | 0.00 | 68 | 1012.2 |
| 20260903212820 | 88 | 168 | 1.7 | 3.5 | 0.00 | 0.00 | 0.00 | 66 | 1012.5 |
| 20260903212317 | 88 | 223 | 1.7 | 4.3 | 0.00 | 0.00 | 0.00 | 66 | 1012.5 |
| 20260903211818 | 88 | 281 | 2.6 | 4.3 | 0.00 | 0.00 | 0.00 | 65 | 1012.5 |
| 20260903211318 | 88 | 253 | 1.7 | 3.5 | 0.00 | 0.00 | 0.00 | 66 | 1012.5 |
| 20260903210818 | 88 | 241 | 1.7 | 5.2 | 0.00 | 0.00 | 0.00 | 67 | 1012.5 |
| 20260903210316 | 88 | 225 | 1.7 | 5.2 | 0.00 | 0.00 | 0.00 | 65 | 1012.5 |